Zurück zum Katalog

DELTA 1 DEB

AktivPO
NORAD 21969·DEBRIS·🇺🇸 United States

Gestartet Jun 12, 1975 von Vandenberg Space Force Base

Loading…

Nächste Überflüge (nächste 24 Stunden)

TLE

AktuellSource: Space-Track

Epoche: Sep 14, 2026, 08:23 UTC

1 21969U 75052JV  26257.34988757  .00000584  00000-0  10846-2 0  9997
2 21969  99.0200 218.4789 0110844 152.6706   3.4476 13.40900876711756

Verfolge DELTA 1 DEB in Echtzeit mit AllMySat

Download on the App Store